Temperature
20 20 20 19 19 19 19 19 19 19 19 19 19 19 19 19 19 19 18 18 18 18 18 18 18 18 18 18 18 18 18 18 18 18 18 18 18 17 17 17 17 17 17
20 21 20 20 19 19 19 19 19 19 19 19 19 18 18 18 18 18 18 18 18 18 18 18 18 18 18 18 18 18 18 18 18 18 18 17 17 17 17 17 17 17 17
21 21 20 20 19 19 19 19 19 19 18 18 18 18 18 18 18 18 18 18 18 18 18 18 18 18 18 18 18 18 18 18 18 17 17 17 17 17 17 17 17 17 17
20 20 20 20 19 19 19 19 19 18 18 18 18 18 18 18 18 18 18 18 18 18 18 18 18 18 18 18 18 18 18 17 17 17 17 17 17 17 17 17 17 17 17
20 20 20 20 19 19 19 19 18 18 18 18 18 18 18 18 18 18 18 18 18 18 18 18 18 18 18 18 18 18 18 17 17 17 17 17 17 17 17 17 17 17 17
20 20 20 20 19 19 19 19 18 18 18 18 18 18 18 18 18 18 18 18 18 18 18 18 18 18 18 18 18 18 17 17 17 17 17 17 17 17 17 17 17 17 17
20 20 20 20 19 19 19 19 18 18 18 18 18 18 18 18 18 18 18 18 18 18 18 18 18 18 18 18 18 18 18 17 17 17 17 17 17 17 17 17 17 17 17
20 20 20 20 20 19 19 19 18 18 18 18 18 18 18 18 18 18 18 18 18 18 18 18 18 18 18 18 18 18 18 17 17 17 17 17 17 17 17 17 17 17 17
21 20 20 20 20 19 19 19 18 18 18 18 18 18 18 18 18 18 18 18 18 18 18 18 18 18 18 18 18 18 18 18 17 17 17 18 17 17 17 17 17 17 16
21 20 20 19 19 19 19 19 19 19 18 18 18 18 18 18 18 18 18 18 18 18 18 18 18 18 18 18 18 18 18 18 17 17 18 18 17 17 17 17 17 17 16
22 21 20 19 19 19 19 19 19 19 18 18 18 18 18 18 18 18 18 18 18 18 18 18 18 18 18 18 18 18 18 18 18 17 18 18 17 17 17 17 17 17 16
22 21 21 20 19 19 19 19 18 18 18 18 18 18 18 18 17 18 18 18 18 18 18 18 18 18 18 18 18 18 18 18 18 18 18 18 17 17 17 17 17 17 16
22 21 21 20 20 19 19 19 18 18 18 18 18 18 18 18 18 18 18 18 18 18 18 18 18 18 17 18 18 18 18 18 18 18 18 18 17 17 17 17 17 17 16
22 21 21 20 20 19 19 19 19 19 19 18 18 18 18 18 18 18 18 18 18 18 18 18 18 17 18 18 18 18 18 18 18 18 18 18 18 17 17 17 17 17 16
21 21 21 20 20 19 19 19 19 19 19 18 18 18 18 18 18 18 18 18 18 18 18 18 18 18 18 18 18 18 18 18 18 18 18 18 18 17 17 17 17 17 17
21 21 20 20 19 19 19 19 19 19 19 19 18 18 18 18 18 18 18 18 18 18 18 18 18 18 18 18 18 18 18 18 18 17 18 17 17 17 17 17 17 17 17
21 21 20 20 19 19 19 19 19 19 19 19 18 18 18 18 18 18 18 18 18 18 18 18 18 18 18 18 18 18 18 18 17 17 17 17 17 17 17 17 17 17 17
21 20 20 19 19 19 19 19 19 19 19 19 18 18 18 18 18 18 18 18 18 18 18 18 18 18 18 18 18 18 18 18 17 17 17 17 17 17 17 17 17 17 17
21 20 20 20 19 19 19 19 19 19 19 18 18 18 18 18 18 18 18 18 18 18 18 18 18 18 18 18 18 18 18 18 18 17 17 17 17 17 17 17 17 17 17
21 21 21 20 20 19 19 19 19 19 19 18 18 18 18 18 18 18 18 18 18 18 18 18 18 18 18 18 18 18 18 18 18 18 18 17 17 17 17 17 17 17 17
21 21 20 20 20 19 19 19 19 19 19 18 18 18 18 18 18 18 18 18 18 18 18 18 18 18 18 18 18 18 18 18 18 18 18 18 18 17 17 17 17 17 17
21 21 21 20 20 20 19 19 19 18 18 18 18 18 18 18 18 18 18 18 18 18 18 18 18 18 18 18 18 18 18 18 18 18 18 18 18 18 17 17 17 17 17
21 21 21 20 20 20 19 19 19 18 18 18 18 18 18 18 18 18 18 18 18 18 18 18 18 18 18 18 18 18 18 18 18 18 18 18 18 18 18 18 17 17 17
21 21 20 20 20 20 19 19 19 18 18 18 18 18 18 18 18 18 18 18 18 18 18 18 18 18 18 18 18 18 18 18 18 18 18 18 18 18 18 18 18 17 17
21 20 20 20 20 20 19 19 19 18 18 18 18 18 18 18 18 18 18 18 18 18 18 17 18 18 18 18 18 18 18 18 18 18 18 18 18 18 18 18 18 18 17
21 21 20 20 20 20 19 19 19 18 18 18 18 18 18 18 18 18 18 18 18 18 18 17 17 18 18 18 18 18 18 18 18 18 18 18 18 18 18 18 18 18 18
Wind_Speed
16 16 15 15 15 14 14 14 14 14 14 14 14 14 15 15 15 16 16 15 15 15 15 15 15 15 16 16 16 16 16 16 17 17 18 17 17 16 16 17 18 16 17
19 18 16 16 15 15 14 14 14 14 14 14 14 14 14 14 15 15 15 15 15 15 15 15 15 15 15 15 15 14 14 15 16 17 18 17 16 15 14 16 17 15 16
19 18 17 16 15 15 15 14 14 14 13 13 13 13 14 14 14 14 14 14 15 15 15 15 15 15 15 14 13 13 13 13 14 15 16 16 15 16 17 18 18 17 16
19 18 17 16 15 15 14 14 14 13 13 13 13 13 13 13 14 14 14 14 14 15 15 15 15 14 14 13 12 11 10 10 11 11 13 15 15 16 17 18 17 16 15
19 19 18 16 15 14 14 13 13 13 13 13 13 13 13 14 14 14 14 14 14 15 15 14 14 14 13 11 10 8 7 6 6 9 15 16 15 16 16 17 16 16 15
18 19 17 16 15 14 13 13 13 13 12 13 13 13 13 13 14 14 14 14 14 14 14 14 13 13 12 10 8 5 3 2 4 11 15 16 14 15 16 16 16 15 15
19 19 17 16 15 14 13 12 13 12 13 13 12 12 13 13 13 14 14 14 14 14 14 13 12 11 10 8 6 3 3 2 6 13 15 16 14 15 15 15 14 14 14
19 19 17 15 14 13 13 12 12 12 12 12 12 12 13 13 13 13 13 13 13 13 13 12 12 11 9 7 3 2 3 3 10 15 16 15 15 14 14 14 13 13 13
19 18 16 16 14 13 13 12 12 12 12 12 11 11 12 12 12 12 12 12 12 12 11 11 11 10 8 5 2 2 4 6 5 13 16 14 14 13 13 13 12 12 12
16 16 16 16 15 14 13 12 12 11 11 11 10 10 11 12 12 12 12 11 11 10 10 10 10 9 7 4 1 2 5 5 5 14 14 14 14 13 12 12 12 12 12
13 12 12 14 13 13 14 13 12 11 10 11 9 9 10 9 11 10 12 10 9 9 9 8 8 8 7 5 3 3 5 0 9 13 14 15 13 12 11 11 11 11 11
11 12 11 11 10 10 11 12 11 10 11 8 8 9 8 6 8 11 12 9 8 8 7 8 8 7 6 6 6 5 3 4 10 12 13 15 13 12 11 11 10 10 10
10 9 12 10 8 7 8 8 7 8 9 7 7 7 6 7 9 10 9 9 8 8 7 8 9 8 7 4 4 4 2 5 10 12 13 14 12 11 10 10 9 9 9
9 8 10 10 6 5 6 6 6 6 6 6 6 5 5 3 4 6 5 8 8 7 5 5 5 4 3 3 2 2 4 7 9 12 12 13 12 11 10 9 9 9 9
8 8 9 9 7 4 3 2 4 4 5 7 7 3 4 3 2 3 2 1 3 5 5 2 2 3 2 1 1 3 4 6 9 12 12 12 12 11 10 9 9 9 9
9 8 9 8 7 5 3 1 1 3 4 6 7 6 3 3 4 3 2 1 1 1 3 3 2 2 1 1 1 3 2 4 8 11 12 12 12 11 10 10 10 9 9
10 8 8 8 7 6 5 4 3 3 5 4 6 6 4 3 4 3 2 1 1 2 3 2 1 1 1 1 1 1 1 2 4 8 12 12 12 12 12 11 11 10 10
10 9 8 8 9 6 4 3 2 2 3 4 5 6 5 4 4 2 2 2 2 2 2 2 1 1 1 1 1 1 2 2 3 5 8 12 13 13 14 14 13 12 11
9 9 8 6 8 8 6 4 3 1 2 2 3 4 6 6 6 4 2 2 3 1 1 2 2 1 1 1 2 2 2 3 3 5 5 8 11 14 15 16 16 15 14
9 9 8 7 7 7 6 4 3 3 3 3 3 4 5 5 7 5 3 3 3 2 1 1 2 1 1 2 3 2 3 4 4 4 5 7 9 11 14 16 15 15 16
9 9 8 8 7 6 5 5 5 4 4 4 5 7 7 6 5 3 2 3 3 2 2 2 1 2 3 2 1 1 2 4 5 4 4 4 6 8 11 16 15 14 14
10 10 9 8 9 8 6 5 4 3 4 4 4 6 8 6 5 6 4 3 4 2 2 2 2 2 3 3 2 1 1 2 3 6 5 5 5 6 6 11 12 12 12
11 10 9 8 8 8 6 4 3 2 2 3 3 4 5 6 6 5 5 4 3 3 4 4 4 4 3 3 3 2 1 2 2 3 4 4 4 4 4 6 10 11 11
10 10 7 7 7 6 6 5 5 4 4 4 3 3 4 5 5 6 5 4 3 3 3 5 5 4 4 3 3 2 2 2 1 2 2 3 5 5 5 6 7 11 12
10 9 8 7 6 5 5 5 5 4 4 3 3 3 4 4 5 6 5 4 4 3 4 4 2 3 2 3 2 2 2 2 4 3 3 3 3 3 4 4 4 6 11
10 9 8 7 6 5 5 5 4 4 4 3 4 4 4 4 4 5 5 4 4 3 3 3 3 4 3 3 2 2 2 2 3 2 2 3 3 4 4 3 3 4 8
Wind_Direction
105 106 104 102 103 101 99 96 94 93 91 88 85 83 83 85 86 87 90 92 93 95 95 95 93 91 89 89 91 92 93 95 97 98 99 99 100 102 107 110 104 101 106
109 108 105 105 104 103 101 99 97 95 92 90 88 87 87 88 89 90 91 92 93 95 97 97 96 95 94 95 97 98 100 103 106 107 105 100 98 101 106 106 104 109 109
112 115 110 107 106 104 102 101 99 97 95 93 91 90 90 91 92 94 94 94 93 93 96 97 96 97 98 99 101 103 109 113 119 122 115 106 101 100 103 105 109 112 109
118 117 111 110 107 105 104 102 100 97 95 95 94 93 92 91 93 94 94 94 94 95 96 97 98 99 101 102 105 110 116 123 130 129 114 108 104 104 108 111 112 111 109
107 108 112 113 111 109 107 105 103 100 97 96 95 93 94 95 94 94 95 96 96 96 96 98 99 101 103 105 107 111 119 127 131 110 96 96 100 110 113 115 114 112 110
118 114 116 116 114 112 110 108 106 104 101 98 97 95 96 96 96 96 96 96 97 98 98 99 101 103 105 108 110 107 91 106 108 107 104 104 107 113 115 115 114 113 112
118 118 121 119 117 116 114 112 108 106 103 102 102 100 99 99 98 98 98 97 98 98 99 100 102 104 105 108 107 84 47 28 111 106 100 100 107 113 114 114 113 113 114
122 120 123 123 121 119 117 115 113 111 109 108 107 105 105 104 103 102 101 100 100 100 101 101 103 103 106 107 99 36 5 2 105 107 103 105 113 114 116 116 115 116 117
123 127 135 133 129 126 122 119 118 117 116 115 115 115 113 113 111 108 104 103 103 105 106 105 105 107 112 115 106 350 349 350 95 117 112 113 118 117 117 119 121 121 121
129 135 141 140 140 141 133 129 127 126 126 126 127 127 125 123 122 122 114 108 109 112 114 115 115 117 124 131 154 315 323 326 117 107 109 118 123 122 122 121 122 123 124
127 133 137 137 146 148 141 139 140 140 142 144 145 145 147 146 138 138 116 120 118 121 127 130 132 137 146 164 198 267 296 294 95 98 107 124 129 129 127 126 126 127 129
134 138 134 136 143 146 139 146 156 156 157 170 152 161 174 154 135 124 131 134 136 139 147 156 157 169 184 183 194 229 248 120 108 108 119 131 132 134 133 133 134 136 136
146 141 136 131 140 141 132 156 151 148 155 159 155 163 168 150 137 136 150 153 165 172 178 167 186 201 202 198 176 199 135 91 106 111 128 136 138 140 142 143 144 145 145
154 142 134 130 139 132 131 142 149 148 152 147 158 185 153 145 135 137 156 167 175 180 181 175 186 176 151 139 138 111 111 98 106 116 135 142 145 149 149 149 149 150 151
152 146 130 130 134 127 115 171 152 147 151 147 150 176 147 141 127 118 122 170 189 158 160 147 125 107 94 119 131 96 83 104 121 126 138 151 153 156 158 159 160 161 162
160 153 139 141 141 142 146 174 142 155 139 143 146 149 154 131 126 134 150 216 263 105 116 114 122 122 119 21 50 74 65 107 117 133 145 159 165 168 170 172 173 175 177
160 154 149 152 152 160 171 192 185 184 162 144 127 136 150 136 133 158 158 206 202 133 123 109 108 131 170 160 138 133 114 93 120 140 154 164 172 179 182 184 184 185 188
159 155 164 168 158 165 178 198 205 205 135 133 140 149 158 151 165 199 193 201 184 178 166 156 220 162 117 108 147 200 145 144 163 176 172 176 176 179 188 194 192 193 197
156 155 170 166 160 171 176 189 211 164 110 140 153 155 167 178 188 217 185 171 191 201 195 204 162 164 177 197 223 204 200 189 189 207 197 193 182 175 181 192 197 198 202
155 158 169 173 167 169 174 188 205 183 178 188 184 174 181 199 201 214 188 183 212 208 186 138 122 183 216 214 247 204 207 211 200 203 210 208 197 188 180 182 191 203 209
159 163 172 181 174 176 181 188 195 196 194 197 194 183 194 212 211 219 231 174 225 213 184 192 170 209 230 217 246 259 233 224 211 204 215 209 203 199 181 177 190 196 200
165 169 176 184 180 186 187 187 193 193 204 199 202 181 193 201 211 213 208 215 208 199 198 203 194 241 247 212 205 232 276 276 249 219 202 210 209 194 195 190 193 194 194
169 175 180 179 179 188 183 184 188 180 214 206 196 183 199 203 215 233 208 229 219 204 197 207 203 216 243 250 221 183 190 240 259 261 223 211 196 192 208 204 193 193 196
169 171 168 168 174 180 181 191 192 197 208 208 199 187 196 204 214 221 223 223 232 236 201 214 208 207 229 251 253 225 219 193 226 277 277 242 207 201 212 218 205 195 201
162 162 161 159 164 170 181 191 203 214 215 208 195 187 200 207 216 225 221 216 220 232 226 222 189 199 223 243 257 256 252 238 233 227 250 254 243 213 213 216 210 196 199
158 159 158 155 162 172 186 192 204 220 223 217 200 192 205 207 214 220 217 210 218 224 232 225 204 210 224 246 269 282 271 256 255 251 254 256 248 232 216 200 207 195 192
Height
1533 1533 1534 1536 1537 1538 1539 1540 1541 1542 1542 1543 1544 1544 1545 1545 1546 1546 1547 1548 1549 1550 1551 1552 1553 1554 1555 1556 1557 1558 1559 1560 1561 1562 1563 1564 1565 1566 1567 1568 1569 1570 1572
1533 1535 1536 1537 1539 1540 1541 1542 1543 1544 1545 1546 1546 1547 1547 1548 1548 1549 1550 1551 1552 1553 1553 1554 1555 1556 1557 1558 1559 1560 1561 1562 1563 1564 1565 1566 1567 1568 1569 1570 1571 1572 1574
1534 1536 1538 1539 1541 1542 1543 1544 1545 1546 1547 1548 1549 1549 1550 1550 1551 1552 1552 1553 1554 1555 1556 1556 1557 1558 1559 1560 1561 1562 1564 1565 1566 1567 1567 1568 1569 1570 1571 1572 1573 1575 1576
1537 1538 1540 1541 1543 1544 1545 1546 1547 1548 1549 1550 1551 1551 1552 1553 1553 1554 1555 1556 1556 1557 1558 1559 1560 1560 1561 1562 1563 1565 1566 1567 1568 1569 1571 1571 1572 1573 1574 1575 1576 1577 1578
1539 1540 1542 1543 1545 1546 1547 1548 1549 1550 1551 1552 1553 1554 1554 1555 1556 1557 1557 1558 1559 1559 1560 1561 1562 1563 1564 1565 1566 1567 1568 1570 1570 1572 1573 1573 1574 1575 1576 1577 1579 1580 1581
1541 1542 1543 1545 1546 1548 1549 1550 1551 1552 1553 1554 1555 1556 1557 1557 1558 1559 1560 1561 1561 1562 1563 1563 1564 1565 1566 1567 1568 1569 1570 1572 1573 1574 1575 1576 1576 1577 1578 1579 1581 1582 1583
1543 1544 1545 1547 1548 1549 1551 1552 1553 1554 1555 1556 1557 1558 1559 1560 1560 1561 1562 1563 1564 1564 1565 1566 1566 1567 1568 1569 1571 1572 1573 1574 1575 1576 1577 1577 1578 1579 1580 1582 1583 1584 1585
1544 1545 1547 1548 1550 1551 1553 1554 1555 1556 1557 1558 1559 1560 1561 1562 1563 1564 1564 1565 1566 1567 1568 1568 1568 1569 1570 1571 1573 1574 1575 1576 1577 1578 1579 1579 1580 1581 1582 1583 1584 1586 1587
1546 1547 1548 1550 1552 1553 1554 1556 1557 1558 1559 1560 1561 1562 1563 1564 1565 1566 1567 1568 1568 1569 1570 1570 1571 1571 1572 1574 1575 1576 1577 1578 1579 1580 1580 1581 1582 1583 1584 1585 1586 1587 1588
1548 1549 1551 1552 1553 1555 1556 1557 1559 1560 1561 1562 1563 1564 1565 1566 1567 1568 1569 1570 1571 1571 1572 1573 1573 1574 1575 1576 1577 1578 1579 1580 1581 1581 1582 1582 1583 1584 1585 1586 1587 1588 1590
1550 1551 1553 1554 1555 1557 1558 1559 1560 1561 1563 1564 1565 1566 1567 1568 1569 1570 1571 1572 1573 1573 1574 1575 1576 1576 1577 1579 1580 1581 1581 1582 1583 1583 1583 1584 1585 1585 1586 1587 1588 1589 1591
1550 1552 1554 1556 1557 1559 1560 1561 1562 1563 1564 1565 1567 1568 1568 1570 1571 1572 1573 1573 1574 1575 1576 1577 1578 1578 1579 1580 1582 1582 1583 1584 1584 1583 1584 1585 1586 1586 1587 1588 1589 1590 1592
1551 1553 1555 1556 1558 1560 1561 1562 1564 1565 1565 1567 1568 1569 1570 1571 1572 1573 1574 1575 1576 1576 1577 1578 1579 1580 1581 1582 1583 1583 1584 1585 1584 1584 1585 1585 1586 1587 1588 1589 1590 1591 1592
1551 1553 1555 1556 1558 1560 1562 1563 1565 1566 1566 1568 1568 1570 1571 1572 1573 1574 1575 1576 1577 1578 1579 1579 1580 1581 1582 1583 1584 1584 1585 1586 1585 1585 1586 1586 1587 1588 1588 1589 1590 1591 1592
1551 1553 1554 1556 1558 1559 1561 1563 1565 1566 1567 1568 1569 1570 1572 1573 1574 1575 1576 1577 1578 1579 1580 1580 1581 1582 1583 1584 1585 1586 1586 1586 1586 1586 1586 1587 1588 1588 1589 1589 1590 1591 1592
1550 1552 1553 1555 1557 1558 1560 1562 1564 1565 1567 1568 1569 1569 1571 1572 1573 1575 1576 1577 1578 1580 1580 1581 1582 1582 1583 1584 1585 1586 1586 1587 1587 1586 1587 1587 1588 1589 1589 1589 1590 1591 1592
1548 1550 1552 1554 1556 1558 1559 1561 1564 1565 1566 1568 1568 1569 1570 1572 1573 1574 1575 1577 1578 1579 1580 1581 1581 1582 1583 1584 1584 1585 1586 1586 1587 1587 1587 1587 1588 1588 1589 1590 1590 1591 1591
1547 1549 1551 1553 1554 1556 1558 1560 1563 1565 1566 1567 1568 1568 1569 1571 1572 1573 1575 1576 1577 1579 1580 1580 1581 1582 1582 1583 1583 1584 1585 1585 1586 1587 1587 1587 1587 1588 1589 1589 1590 1590 1591
1546 1547 1549 1552 1553 1555 1557 1559 1561 1563 1564 1565 1567 1568 1569 1570 1571 1573 1574 1575 1577 1578 1579 1580 1580 1581 1582 1582 1583 1583 1584 1584 1585 1586 1587 1587 1587 1587 1587 1588 1589 1589 1590
1544 1546 1548 1550 1551 1553 1555 1557 1559 1561 1562 1564 1566 1566 1568 1569 1570 1572 1573 1574 1576 1577 1578 1579 1579 1580 1581 1581 1582 1582 1583 1583 1584 1584 1585 1586 1586 1587 1586 1586 1587 1588 1588
1543 1544 1546 1548 1550 1552 1553 1555 1557 1559 1561 1562 1564 1565 1566 1567 1569 1570 1571 1572 1574 1575 1576 1577 1578 1579 1580 1581 1581 1581 1582 1582 1582 1583 1583 1584 1585 1586 1586 1585 1585 1586 1586
1541 1543 1544 1546 1548 1550 1552 1554 1556 1557 1559 1560 1562 1563 1564 1565 1567 1568 1569 1570 1572 1573 1575 1576 1577 1577 1578 1579 1580 1580 1580 1582 1580 1581 1581 1582 1583 1583 1584 1584 1584 1584 1584
1540 1541 1543 1545 1547 1548 1550 1552 1554 1556 1557 1559 1559 1560 1562 1563 1564 1566 1567 1569 1570 1572 1573 1574 1575 1575 1576 1578 1578 1579 1579 1579 1579 1580 1580 1580 1581 1581 1582 1583 1582 1582 1582
1539 1541 1542 1544 1545 1547 1549 1550 1552 1553 1554 1556 1557 1558 1559 1560 1562 1563 1564 1566 1568 1569 1570 1572 1573 1574 1575 1575 1576 1577 1578 1578 1578 1578 1578 1578 1578 1578 1579 1580 1580 1580 1580
1538 1540 1541 1542 1544 1545 1547 1548 1550 1551 1552 1554 1555 1555 1556 1558 1559 1561 1562 1563 1565 1566 1568 1569 1570 1571 1572 1573 1574 1575 1576 1576 1576 1577 1576 1576 1576 1576 1577 1577 1577 1577 1577
1538 1540 1540 1541 1543 1544 1545 1546 1548 1549 1550 1551 1552 1553 1554 1555 1556 1558 1559 1560 1562 1563 1565 1566 1568 1569 1570 1571 1572 1572 1573 1574 1574 1574 1574 1574 1574 1574 1574 1574 1574 1575 1575